Flag for Vietnam Weather past 2 weeks in Da Nang, Vietnam

Now
88 °F

Scattered clouds.


Feels Like: 96 °F
Forecast: 80 / 90 °F
Wind: 1 mph from North

Location: Da Nang Airport

Current Time: Aug 5, 2015 at 9:38:24 AM

Latest Report: Aug 5, 2015 at 9:00 AM


Visibility: N/A

Pressure: 29.74 "Hg

Humidity: 62%

Dew point: 73 °F

Location of Da NangLocation

Historic Weather in Da Nang — Graph

°F

Da Nang temperature yesterday

Maximum temperature yesterday: 91 °F (at 12:30 PM)
Minimum temperature yesterday: 75 °F (at 4:00 AM)
Average temperature yesterday: 82 °F

Past Weeks' High & Low Weather Summary

 TemperatureHumidityPressure
High102 °F (Jul 23, 2:00 PM)100% (Jul 31, 5:00 AM)29.92 "Hg (Jul 31, 5:00 AM)
Low72 °F (Jul 30, 6:30 AM)37% (Jul 23, 2:00 PM)29.71 "Hg (Jul 23, 2:30 PM)
Average83 °F75%29.81 "Hg
* Reported Jul 21 8:00 AM — Aug 5 8:30 AM, Da Nang, Weather by CustomWeather, © 2015

Note: Actual official high and low records may vary slightly from our data, if they occured in-between our weather recording intervals... More about our weather records

Advertising

Da Nang weather history for previous 24 hours

 ConditionsComfort  
Time TempWeatherWind HumidityBarometerVisibility
8:30 AM
Wed, Aug 5
84 °FScattered clouds.1 mph74%29.74 "HgN/A
8:00 AM82 °FPartly sunny.3 mph79%29.74 "HgN/A
7:30 AM79 °FPartly sunny.1 mph89%29.74 "HgN/A
7:00 AM79 °FPartly sunny.3 mph89%29.74 "HgN/A
6:30 AM77 °FPartly sunny.5 mph89%29.74 "HgN/A
6:00 AM77 °FPartly sunny.3 mph89%29.74 "HgN/A
5:30 AM77 °FScattered clouds.3 mph89%29.74 "HgN/A
5:00 AM77 °FPassing clouds.6 mph89%29.74 "HgN/A
4:30 AM77 °FPassing clouds.3 mph89%29.71 "HgN/A
4:00 AM77 °FPassing clouds.5 mph94%29.71 "HgN/A
3:30 AM77 °FPassing clouds.3 mph94%29.71 "HgN/A
3:00 AM77 °FPassing clouds.3 mph94%29.71 "HgN/A
2:30 AM77 °FPassing clouds.2 mph89%29.74 "HgN/A
2:00 AM75 °FPassing clouds.3 mph94%29.74 "HgN/A
1:30 AM77 °FPassing clouds.5 mph89%29.74 "HgN/A
1:00 AM77 °FPassing clouds.3 mph89%29.74 "HgN/A
12:00 AM77 °FPassing clouds.7 mph89%29.77 "HgN/A
11:30 PM
Tue, Aug 4
77 °FPassing clouds.6 mph89%29.77 "HgN/A
11:00 PM77 °FPassing clouds.3 mph94%29.80 "HgN/A
10:30 PM79 °FPassing clouds.5 mph89%29.80 "HgN/A
10:00 PM79 °FPassing clouds.5 mph89%29.80 "HgN/A
9:30 PM79 °FPassing clouds.5 mph89%29.77 "HgN/A
9:00 PM79 °FPassing clouds.3 mph89%29.77 "HgN/A
8:30 PM79 °FPassing clouds.3 mph89%29.77 "HgN/A
8:00 PM79 °FPassing clouds.2 mph89%29.77 "HgN/A
7:30 PM79 °FPassing clouds.7 mph89%29.77 "HgN/A
7:00 PM81 °FPassing clouds.8 mph84%29.74 "HgN/A
6:30 PM81 °FPassing clouds.3 mph84%29.74 "HgN/A
6:00 PM82 °FPartly sunny.7 mph79%29.74 "HgN/A
5:30 PM84 °FPartly sunny.5 mph79%29.71 "HgN/A
4:30 PM84 °FPassing clouds.6 mph74%29.71 "HgN/A
4:00 PM86 °FPassing clouds.7 mph70%29.74 "HgN/A
3:30 PM88 °FPassing clouds.8 mph70%29.71 "HgN/A
3:00 PM88 °FPassing clouds.8 mph66%29.71 "HgN/A
2:30 PM88 °FPassing clouds.9 mph66%29.71 "HgN/A
2:00 PM88 °FPassing clouds.9 mph66%29.71 "HgN/A
1:30 PM88 °FPassing clouds.10 mph66%29.74 "HgN/A
1:00 PM88 °FPassing clouds.10 mph66%29.74 "HgN/A
12:30 PM91 °FPassing clouds.8 mph63%29.74 "HgN/A
12:00 PM90 °FPassing clouds.8 mph67%29.77 "HgN/A
11:30 AM90 °FPassing clouds.8 mph67%29.77 "HgN/A
11:00 AM90 °FScattered clouds.6 mph67%29.77 "HgN/A
10:30 AM88 °FScattered clouds.3 mph70%29.77 "HgN/A
10:00 AM90 °FScattered clouds.3 mph63%29.80 "HgN/A
9:30 AM90 °FScattered clouds.2 mph63%29.80 "HgN/A
9:00 AM86 °FScattered clouds.1 mph70%29.80 "HgN/A
Weather by CustomWeather, © 2015

See weather overviewHow to use our weather pages